Location: Bieg
(49.3499°N, 10.3835°E)
Time: 00:29:06
(UTC+00:00)

IRAS Rocket - Pass Details

Date: 23 May 2024
Orbit: 846 x 877 km, 100.1° (Epoch: 12 June)

Event Time Altitude Azimuth Distance (km) Brightness Sun altitude
Rises 02:14:33 0° 17° (NNE) 3,439 8.7 -9.5°
Reaches altitude 10° 02:16:56 10° 18° (NNE) 2,494 7.8 -9.2°
Maximum altitude 02:22:29 86° 107° (ESE) 859 4.3 -8.6°
Drops below altitude 10° 02:27:57 10° 197° (SSW) 2,464 6.1 -8.0°
Enters shadow 02:28:52 - 197° (SSW) 2,823 6.4 -7.9°
